Home   Weather   São Luis   Past weeks
Flag for Brazil

Past Weather in São Luis, Maranhão, Brazil — Yesterday and Last 2 Weeks

Now
84 °F

Partly sunny.


Feels Like: 92 °F
Forecast: 85 / 76 °F
Wind: 10 mph from Northeast

Location: Sao Luiz Aeroporto

Current Time: Jul 18, 2019 at 10:44:25 am

Latest Report: Jul 18, 2019 at 10:00 am


Visibility: N/A

Pressure: 29.98 "Hg

Humidity: 74%

Dew Point: 75 °F

Location of São LuisLocation

Past Weather in São Luis — Graph

°F

São Luis Temperature Yesterday

Maximum temperature yesterday: 86 °F (at 11:00 am)
Minimum temperature yesterday: 73 °F (at 6:00 pm)
Average temperature yesterday: 79 °F

High & Low Weather Summary for the Past Weeks

 TemperatureHumidityPressure
High90 °F (Jul 5, 12:00 pm)100% (Jul 12, 3:00 pm)30.04 "Hg (Jul 12, 3:00 pm)
Low73 °F (Jul 8, 6:00 pm)59% (Jul 7, 2:00 pm)29.83 "Hg (Jul 3, 3:00 pm)
Average80 °F84%29.93 "Hg
* Reported Jul 3 9:00 am — Jul 18 9:00 am, São Luis. Weather by CustomWeather, © 2019

Note: Actual official high and low records may vary slightly from our data, if they occured in-between our weather recording intervals... More about our weather records

Advertising

São Luis Weather History for the Previous 24 Hours

Scroll right to see more
 ConditionsComfort  
Time TempWeatherWind HumidityBarometerVisibility
9:00 am
Thu, Jul 18
82 °FScattered clouds.8 mph79%29.98 "HgN/A
8:00 am81 °FPassing clouds.6 mph89%29.98 "HgN/A
7:00 am77 °FSunny.3 mph94%29.95 "Hg10 mi
6:00 am77 °FClear.6 mph94%29.95 "Hg10 mi
5:00 am77 °FClear.7 mph94%29.92 "Hg10 mi
4:00 am77 °FClear.3 mph94%29.92 "Hg10 mi
3:00 am77 °FClear.2 mph94%29.95 "Hg10 mi
2:00 am77 °FClear.3 mph94%29.95 "Hg10 mi
1:00 am77 °FClear.3 mph94%29.98 "Hg10 mi
12:00 am77 °FClear.5 mph94%29.98 "Hg10 mi
11:00 pm
Wed, Jul 17
77 °FClear.3 mph94%29.98 "Hg10 mi
10:00 pm75 °FClear.2 mph100%29.98 "Hg10 mi
9:00 pm73 °FPassing clouds.No wind100%29.98 "HgN/A
8:00 pm73 °FPassing clouds.5 mph94%29.95 "HgN/A
7:00 pm73 °FPassing clouds.2 mph94%29.95 "HgN/A
6:00 pm73 °FThunderstorms. Partly sunny.2 mph89%29.92 "Hg5 mi
5:29 pm75 °FThunderstorms. Partly sunny.15 mph89%29.95 "Hg1 mi
5:06 pm82 °FThunderstorms. Partly sunny.9 mph84%29.92 "Hg5 mi
5:00 pm82 °FPartly sunny.10 mph79%29.92 "HgN/A
4:00 pm82 °FPartly sunny.12 mph79%29.89 "HgN/A
3:10 pm79 °FThunderstorms. Partly sunny.20 mph94%29.92 "Hg1 mi
3:00 pm86 °FScattered showers. Partly sunny.16 mph75%29.89 "Hg5 mi
2:00 pm86 °FPartly sunny.14 mph75%29.92 "HgN/A
1:00 pm86 °FScattered clouds.10 mph70%29.95 "HgN/A
12:00 pm86 °FScattered clouds.13 mph70%29.98 "HgN/A
11:00 am86 °FScattered clouds.12 mph66%29.98 "HgN/A
10:00 am84 °FScattered clouds.14 mph79%29.98 "HgN/A
Weather by CustomWeather, © 2019

See weather overview